Location: Asheville, NC
(35.6000°N, 82.5500°W)
Time: 01:05:59
(UTC-04:00)

KAITUO 1B - Pass Details

Date: 12 January 2018
Orbit: 499 x 520 km, 97.5° (Epoch: 23 June)

Event Time Altitude Azimuth Distance (km) Brightness Sun altitude
Rises 17:58:09 0° 164° (SSE) 2,633 ? -4.6°
Reaches altitude 10° 18:00:15 10° 162° (SSE) 1,749 ? -5.0°
Maximum altitude 18:04:00 76° 78° (ENE) 542 ? -5.7°
Drops below altitude 10° 18:07:48 10° 352° (N) 1,758 ? -6.4°
Sets 18:09:54 0° 351° (N) 2,648 ? -6.8°
